KENT RIDGE 1 (41167 NORAD) Tracking and Keplerian Element Data

This shows tracking and keplerian element data for the satellite.

Feedback or suggestion? Click here.




ElementValue
Catalog41167
NameKENT RIDGE 1
Epoch Orbit16164
Epoch Day323.51460648
Epoch Year2018
RAAN355.4793
Inclination14.9787
Eccentricity0.0011365
Argument of Perigee337.7592
Mean Anonmoly261.5336
Mean Motion15.08960765
Decay Rate8.66E-06
L11 41167U 15077B 18323.51460648 .00000866 00000-0 12876-4 0 9998
L22 41167 14.9787 355.4793 0011365 337.7592 261.5336 15.08960765161646

Live tracking and technical data element details for KENT RIDGE 1 (NORAD 41167). KENT RIDGE 1 can be tracked NOW for your location showing map with azimuth and elevation plus other details from your city location.

Track the satellite on the map from your city or location and see movement details for azimuth, elevation, latitude, longitude, range, height, and movement on the map or in text.







IsCatalogInMostPopularTable: catalog: 41167, numindb: 90
Update: records affected: 1



GetName: 41167 KENT RIDGE 1

Hit Count: updated at: Wed, 21 Nov 2018 05:35:55 GMT